Weather in Krasnodar

Russia / Krasnodar Krai     45°02′07″N   38°58′31″E
temp.,
°C
wind,
m/s
gust,
m/s
humid.,
%
clouds,
%
prec.,
mm/h
press.,
hPa
HPBL,
m
20 may, fri
fri2000:00+10sw51180100 0.0 1019539
03:00+10sw41091100 1.6 1019460
06:00+11sw41189100 0.1 1020432
09:00+15wsw5771100 0.8 1021907
12:00+17sw696396 1.8 10201418
15:00+18w6106344 4.0 10201901
18:00+18wnw59525 0.3 10201096
21:00+12sw487578 0.4 1021196
21 may, sat
sat2100:00+13ssw61371100 0.0 1020357
03:00+13sw6137376 0.0 1020442
06:00+14ssw7147898 0.0 1020677
09:00+16sw8147075 0.0 1019949
12:00+20sw1014485 0.0 10181417
15:00+20sw91450100 0.0 10171250
18:00+17sw71457100 0.0 1016815
21:00+15sw71561100 0.0 1015635
22 may, sun
sun2200:00+15sw6146081 0.0 1013596
03:00+14sw4116472 0.0 1011465
06:00+14sw51265100 0.0 1009445
09:00+19sw71251100 0.0 1007731
12:00+23sw710340 0.0 10061607
15:00+23wsw693336 0.0 10051723
18:00+19wnw2558100 0.0 1004278
21:00+16wsw2567100 0.1 1005298
23 may, mon
mon2300:00+15sw247139 0.0 1004137
03:00+13wsw3873100 0.0 1004255
06:00+13w410829 0.0 1005430
09:00+16w5861100 0.0 10051208
12:00+19wnw694953 0.0 10051920
15:00+18wnw685140 0.1 10041590
18:00+16wnw575892 0.0 1005954
21:00+13wnw367272 0.1 1007307
24 may, tue
tue2400:00+11w24839 0.0 1008119
03:00+10wnw238799 0.0 1009104
06:00+10wnw12868 0.0 1010127
09:00+15nw227095 0.1 1011873
12:00+18nw235289 1.1 10121597
15:00+17nnw335475 1.7 10131272
18:00+16nnw246398 0.9 1014522
21:00+13nne248299 1.7 101697